Regional Weather Roundup
Issued by NWS

Home | Current Version | Previous Version | Graphics & Text | Print | Product List | Glossary On
Versions: 1 2 3 4 5 6 7 8 9 10 11 12 13 14 15 16 17 18 19 20 21 22 23 24 25 26 27 28 29 30 31 32 33 34 35 36 37 38 39 40 41 42 43 44 45 46 47 48 49 50
000
ASUS43 KLOT 300103
RWRIL

ILLINOIS REGIONAL WEATHER ROUNDUP
NATIONAL WEATHER SERVICE CHICAGO/ROMEOVILLE IL
800 PM CDT SAT APR 29 2017

NOTE: "FAIR" INDICATES FEW OR NO CLOUDS BELOW 12,000 FEET WITH NO
SIGNIFICANT WEATHER AND/OR OBSTRUCTIONS TO VISIBILITY.

* THESE STATIONS ARE NOT UNDER NWS QUALITY CONTROL. THEY ALSO MAY NOT
  REPORT WEATHER SUCH AS PRECIPITATION OR FOG.

ILZ001-002-007-009-015-016-024-300200-
NORTHWEST ILLINOIS

CITY           SKY/WX    TMP DP  RH WIND       PRES   REMARKS
MOLINE         CLOUDY    41  37  86 NE15      29.93R
STERLING*      LGT RAIN  40  38  93 E36G45    29.82F
SAVANNA*       CLOUDY    41  37  84 NE23G36   29.95F
$$

ILZ003-004-008-010-011-017-018-300200-
NORTH CENTRAL ILLINOIS

CITY           SKY/WX    TMP DP  RH WIND       PRES   REMARKS
ROCKFORD       LGT RAIN  40  36  86 NE24G33   30.04F
FREEPORT*      LGT RAIN  38  36  94 NE29G37   30.00F WCI  25
ROCHELLE*      RAIN      38  37  98 NE29G36   29.98F WCI  26
DE KALB*       LGT RAIN  38  38  97 NE24G32   30.02F WCI  27
$$

ILZ005-006-012>014-019>023-300200-
NORTHEAST ILLINOIS

CITY           SKY/WX    TMP DP  RH WIND       PRES   REMARKS
CHICAGO-OHARE  LGT RAIN  41  39  93 NE18G28   30.07F FOG
CHICAGO-MIDWAY HVY RAIN  43  42  97 N30G39    30.01F FOG
AURORA         HVY RAIN  41  40  96 NE29G39   29.97F FOG
LANSING*       RAIN      44  44 100 NE23G32   30.01F
WAUKEGAN       LGT RAIN  40  38  93 NE18G31   30.12F
DUPAGE AIRPORT RAIN      40  40 100 NE23G33   30.01F FOG
WHEELING       LGT RAIN  40  40 100 NE17G28   30.10F FOG
MORRIS*        CLOUDY    42  41  95 NE14G30   29.89F
NORTHERLY ISL    N/A     42  41  96 N26         N/A
$$

LMZ740>746-300200-
SOUTHERN LAKE MICHIGAN

STATION/POSITION SKY/WX   TEMP    WIND        PRES    VSBY  WAVE
                          AIR SEA DIR/SP/G                  HT/PER
                          (F)     (DEG/KT/KT) (MB)    (MI)  (FT/S)
SOUTHERN BUOY              40 41   20/ 17/ 21 1021.8          6/ 7
HARRISON CRIB              42      20/ 26/ 29   N/A
BURNHAM HARBOR             42      10/ 23/ 25   N/A
CALUMET HARBOR             42     360/ 23/ 31 1017.6F
BURNS HARBOR               45      10/ 23/ 42 1018.6R
MICHIGAN CITY              45      20/ 30/ 33   N/A
MICHIGAN CITY 6N           45 47                N/A           8/ 6
ST. JOSEPH                 49 49   60/ 16/ 21 1020.2R         5/ 6
$$

ILZ025>027-034>036-040-047-049-050-058-095>099-300200-
WEST-CENTRAL ILLINOIS

CITY           SKY/WX    TMP DP  RH WIND       PRES   REMARKS
QUINCY         LGT RAIN  44  43  96 N6        29.89R
GALESBURG*     CLOUDY    41  40  95 NE14G23   29.89R
MACOMB*        CLOUDY    43  43 100 E15       29.88R
JACKSONVILLE*  LGT RAIN  43  42  97 NE12      29.88F
PITTSFIELD*    RAIN      45  44  97 E9        29.88S
$$

ILZ028>032-037-038-041>044-048-051>054-059>061-300200-
CENTRAL ILLINOIS

CITY           SKY/WX    TMP DP  RH WIND       PRES   REMARKS
PONTIAC        LGT RAIN  46  45  98 NE26G32   29.90R
BLOOMINGTON    LGT RAIN  44  43  96 N18       29.90F
DECATUR        LGT RAIN  55  55 100 W9        29.83R
PEORIA         LGT RAIN  46  44  93 E23G30    29.88F
SPRINGFIELD    LGT RAIN  46  44  93 N13       29.88R
TAYLORVILLE    NOT AVBL
$$

ILZ033-039-045-046-055>057-062-063-300200-
EAST-CENTRAL ILLINOIS

CITY           SKY/WX    TMP DP  RH WIND       PRES   REMARKS
CHAMPAIGN      TSTM      59  58  96 S6        29.84F
MATTOON        CLOUDY    62  61  96 SE12      29.84R
$$

ILZ079-100>102-300200-
SOUTHWEST ILLINOIS

CITY           SKY/WX    TMP DP  RH WIND       PRES   REMARKS
ALTON          CLOUDY    54  52  94 W12       29.89R
BELLEVILLE     RAIN      64  64 100 CALM      29.86S
CAHOKIA*       TSTM      63  61  93 N9        29.86F
$$

ILZ064>066-069>071-074>076-080>082-084>086-088>090-092>094-300200-
SOUTH-CENTRAL ILLINOIS

CITY           SKY/WX    TMP DP  RH WIND       PRES   REMARKS
CARBONDALE     RAIN      63  63 100 CALM      29.89R FOG
CAIRO*         CLOUDY    79  68  67 S8        29.82S HX  81
EFFINGHAM*     LGT RAIN  63  63 100 SE3       29.87R
MARION         TSTM      64  64 100 N7        29.91R
MT. VERNON     RAIN      64  63  96 S5        29.89S
CENTRALIA*     CLOUDY    65  63  95 SW3       29.87R
SALEM*         RAIN      65  62  89 S5        29.87R
$$

ILZ067-068-072-073-078-083-087-091-300200-
SOUTHEAST ILLINOIS

CITY           SKY/WX    TMP DP  RH WIND       PRES   REMARKS
LAWRENCEVILLE  CLOUDY    75  70  84 S8        29.84S
FLORA*         CLOUDY    65  64  93 SW7       29.90R
FAIRFIELD*     TSTM      64  64  97 W7        29.91R
HARRISBURG*    MOCLDY    78  67  68 NW26G37   29.86R HX  80
ROBINSON*      CLOUDY    69  62  77 NW13G33   29.89R
CARMI*         CLOUDY    78  68  71 SW7       29.84R HX  80
$$

ABBREVIATIONS USED IN REMARKS
   TC - TEMPERATURE IN CELSIUS
  WCI - WIND CHILL INDEX
   HX - HEAT INDEX
  VSB - VISIBILITY
$$




USA.gov is the U.S. government's official web portal to all federal, state and local government web resources and services.